Find Starlink 2525

NORAD ID: 48482 Int'l Des: 2021-040 Owner: SPXS Country: US Constellation: starlink operational
LEOCIRCULAR

当前视图

正在加载3D地球...

关于 Starlink 2525

正在加载描述...

即将过境

Passes for default location (London). Set your location on the main map for personalized predictions.

高度历史

Loading altitude history...

两行轨道根数

1 48482U 21040BG 26146.45004796 .00003002 00000-0 10845-3 0 9993
2 48482 53.1594 192.2361 0001129 80.3214 279.7915 15.31707801278370
Epoch: May 26, 2026 • Age: 13 hours

当前状态

高度 472.6 km
速度 7.63 km/s
星下点 33.59°N, 96.64°E
发射日期 May 9, 2021
运行时间 5 years
类型 internet

技术详情

分类 Payload
质量 260.00 kg
干质量 248.00 kg
总质量 260.00 kg
长度 0.20 m
直径 2.80 m
跨度 9.00 m
形状 Box + pan
制造商 SPXS
平台类型 Starlink
阶段状态 In Orbit
所有者/国家 SPXS/US

Most Searched